#timestamp,LO_Frequency,Hit,StdDev 
1626267615.9,286046996.9,N
1626267635.7,286046997.8,N
1626267655.6,286046997.8,N
1626267675.4,286046995.3,N
1626267695.2,286046995.0,N
1626267715.1,286046995.3,N
1626267716.0,286046995.3,N
1626267735.8,286046994.9,N
1626267755.7,286046995.5,N
1626267775.5,286046995.8,N
1626267795.3,286046996.3,N
1626267815.2,286046993.5,Y
1626267835.0,286046997.3,P
1626267835.9,286046997.3,P
1626267855.8,286046997.9,P
1626267875.6,286046998.0,Y
1626267895.4,286046998.9,P
1626267915.3,286046995.0,P
1626267935.1,286046996.2,N
1626267955.9,286046996.2,N
1626267975.7,286046995.9,Y
1626267995.5,286046996.7,P
1626268015.4,286046997.7,P
1626268035.2,286046995.6,P
1626268055.1,286046993.4,Y
1626268056.0,286046993.4,P
1626268075.8,286046997.2,N
1626268095.6,286046998.0,N
1626268115.5,286046994.9,N
1626268135.3,286046999.2,N
1626268155.1,286046999.1,N
1626268175.9,286047001.0,N
1626268195.7,286047001.0,N
1626268215.6,286046998.5,N
1626268235.4,286047001.1,N
1626268255.2,286046998.8,N
1626268275.1,286046999.2,N
1626268276.0,286046999.2,N
1626268295.8,286046996.7,N
1626268315.6,286046997.0,N
1626268335.5,286046997.0,N
1626268355.3,286046996.5,N
1626268375.2,286046996.5,N
1626268395.9,286046999.6,N
1626268415.7,286046996.5,N
1626268435.6,286046999.1,N
1626268455.4,286046998.4,N
1626268475.2,286047000.8,N
1626268495.1,286047000.5,N
1626268496.0,286047000.5,N
1626268515.8,286047001.1,N
1626268535.7,286047001.2,N
1626268555.5,286047000.0,N
1626268575.3,286046999.9,N
1626268595.2,286046999.9,N
1626268615.0,286046999.8,N
1626268615.9,286046999.8,N
1626268635.7,286047001.9,N
1626268655.6,286047002.1,N
1626268675.4,286047001.9,N
1626268695.3,286047000.1,N
1626268715.1,286047000.4,N
1626268735.8,286046999.7,N
1626268755.7,286047000.3,N
1626268775.5,286047000.6,N
1626268795.4,286046999.3,N
1626268815.2,286047001.2,N
1626268835.0,286046998.5,N
1626268835.9,286046998.5,N
1626268855.8,286046998.5,N
1626268875.6,286046998.8,N
1626268895.4,286046996.6,N
1626268915.3,286046996.8,N
1626268935.1,286046995.4,Y
1626268955.9,286046997.1,P
1626268975.7,286046999.1,N
1626268995.5,286046997.0,N
1626269015.4,286046997.3,N
1626269035.2,286046995.0,Y
1626269055.0,286046999.3,P
1626269056.0,286046999.3,N
1626269075.8,286046999.1,N
1626269095.6,286046998.6,N
1626269115.5,286047000.2,N
1626269135.3,286047002.0,N
1626269155.1,286047001.3,N
1626269175.9,286047004.0,Y
1626269195.7,286047001.8,P
1626269215.6,286047002.0,N
1626269235.4,286047002.5,N
1626269255.2,286047002.1,N
1626269275.1,286047001.9,N
1626269276.0,286047001.9,N
1626269295.8,286047004.2,Y
1626269315.7,286047002.3,P
1626269335.5,286047001.6,P
1626269355.3,286047001.7,P
1626269375.2,286047002.4,Y
1626269395.0,286046998.2,P
1626269395.9,286046998.2,N
1626269415.8,286047000.3,N
1626269435.6,286047000.3,N
1626269455.4,286047001.0,N
1626269475.3,286047000.6,N
1626269495.1,286047000.3,N
1626269515.8,286047000.6,N
1626269535.7,286046998.2,N
1626269555.5,286046999.9,N
1626269575.4,286047000.0,N
1626269595.2,286047000.6,N
1626269615.0,286047000.3,N
1626269615.9,286047000.3,N
1626269635.8,286047000.9,N
1626269655.6,286047000.5,N
1626269675.4,286047001.0,N
1626269695.3,286047000.0,N
1626269715.1,286046998.6,N
1626269735.9,286047000.6,N
1626269755.7,286046999.7,N
1626269775.5,286046999.8,N
1626269795.4,286047000.1,N
1626269815.2,286047000.1,N
1626269835.0,286047000.1,N
1626269835.9,286047000.1,N
1626269855.8,286047002.3,N
1626269875.6,286047001.0,N
1626269895.5,286047000.9,N
1626269915.3,286047000.6,N
1626269935.1,286047000.0,N
1626269955.9,286047002.4,N
1626269975.7,286047002.0,N
1626269995.5,286047003.7,Y
1626270015.4,286047003.8,P
1626270035.2,286047003.0,N
1626270055.1,286047003.2,N
1626270056.0,286047003.2,N
1626270075.8,286047005.3,Y
1626270095.6,286046999.8,P
1626270115.5,286047000.2,N
1626270135.3,286047002.1,N
1626270155.2,286047002.4,N
1626270175.9,286046999.7,N
1626270195.8,286047002.6,N
1626270215.6,286046999.7,N
1626270235.4,286046999.7,N
1626270255.3,286047000.1,N
1626270275.1,286047000.6,N
1626270295.8,286047000.4,N
1626270315.7,286047000.8,N
1626270335.5,286046998.5,N
1626270355.4,286047000.0,N
1626270375.2,286046999.9,N
1626270395.0,286047000.4,N
1626270395.9,286047000.4,N
1626270415.8,286047000.1,N
1626270435.6,286047002.2,N
1626270455.4,286047002.8,N
1626270475.3,286047001.1,N
1626270495.1,286046996.5,Y
1626270515.9,286046997.2,P
1626270535.7,286046997.1,N
1626270555.5,286046996.9,N
1626270575.4,286046999.5,N
1626270595.2,286046999.2,N
1626270615.0,286046998.8,N
1626270615.9,286046998.8,N
1626270635.8,286046998.1,N
1626270655.6,286046998.5,N
1626270675.5,286046998.3,N
1626270695.3,286046998.9,N
1626270715.1,286046999.5,N
1626270735.9,286046998.4,N
1626270755.7,286046996.5,Y
1626270775.5,286047001.1,P
1626270795.4,286047000.3,N
1626270815.2,286046999.7,N
1626270835.1,286047000.5,N
1626270836.0,286047000.5,N
1626270855.8,286047000.5,N
1626270875.6,286047000.8,N
1626270895.5,286047000.9,N
1626270915.3,286047000.6,N
1626270935.1,286047001.2,N
1626270955.9,286047000.4,N
1626270975.7,286047001.2,N
1626270995.6,286046998.1,N
1626271015.4,286046999.0,N
1626271035.2,286046996.8,Y
1626271055.1,286046998.0,P
1626271056.0,286046998.0,N
1626271075.8,286046995.3,P
1626271095.7,286046995.5,N
1626271115.5,286046995.7,N
1626271135.3,286046997.4,N
1626271155.2,286046997.8,N
1626271175.9,286046997.8,N
1626271195.7,286046997.5,N
